Location: Newark
(54.6833°N, 25.2833°E)
Time: 11:25:36
(UTC+00:00)

Tiros 1 - Visible Passes

Search period start: 21 January 2021 00:00
Search period end: 31 January 2021 00:00
Orbit: 630 x 663 km, 48.4° (Epoch: 20 January)

Date Brightness Start Highest point End Pass type
(mag) Time Alt. Az. Time Alt. Az. Time Alt. Az.
21 Jan 9.3 16:45:45 10° SSE 16:47:12 12° SE 16:47:12 12° SE visible
21 Jan 9.8 18:24:38 10° SW 18:24:53 11° SW 18:24:53 11° SW visible
22 Jan 8.9 17:09:36 10° SSW 17:12:19 19° SSE 17:12:19 19° SSE visible
23 Jan 9.3 15:56:01 10° SSE 15:57:23 11° SE 15:58:45 10° ESE visible
23 Jan 8.6 17:34:33 10° SW 17:37:23 25° S 17:37:23 25° S visible
24 Jan 8.9 16:19:35 10° SSW 16:22:48 19° SSE 16:24:44 15° ESE visible
24 Jan 8.8 17:59:57 10° SW 18:02:24 26° SSW 18:02:24 26° SSW visible
25 Jan 8.4 16:44:27 10° SW 16:48:21 27° SSE 16:49:43 23° SE visible
25 Jan 9.2 18:25:36 10° WSW 18:27:22 21° SW 18:27:22 21° SW visible
26 Jan 9.0 15:29:34 10° SSW 15:32:41 18° SSE 15:35:48 10° ESE visible
26 Jan 8.0 17:09:49 10° SW 17:14:02 34° SSE 17:14:40 33° SSE visible
26 Jan 9.7 18:51:23 10° WSW 18:52:19 15° WSW 18:52:19 15° WSW visible
27 Jan 8.6 15:54:22 10° SW 15:58:14 26° SSE 16:01:56 11° ESE visible
27 Jan 8.0 17:35:27 10° WSW 17:39:36 38° S 17:39:36 38° S visible
28 Jan 8.2 16:19:42 10° SW 16:23:53 34° SSE 16:26:52 17° ESE visible
28 Jan 8.4 18:01:14 10° WSW 18:04:31 33° SW 18:04:31 33° SW visible
29 Jan 8.0 16:45:18 10° WSW 16:49:37 38° S 16:51:48 24° SE visible
29 Jan 9.1 18:27:07 10° WSW 18:29:28 23° SW 18:29:28 23° SW visible
30 Jan 8.4 15:29:34 10° SW 15:33:45 33° SSE 15:37:55 10° ESE visible
30 Jan 8.1 17:11:04 10° WSW 17:15:21 37° S 17:16:45 30° SSE visible
30 Jan 9.7 18:53:13 10° WSW 18:54:25 15° WSW 18:54:25 15° WSW visible
